Simultaneous Nadir Overpasses (SNOs) Predictions

Prediction of SNOs between NOAA-19 and METOP-C Satellite Orbit:

Table of predicted SNOs for the next 14.0 days since TLE Epoch: 11/4/2023
Index Date (NOAA-19) Time (NOAA-19) Lat,Lon (NOAA-19) SZA (NOAA-19 ) Date (METOP-C) Time (METOP-C) Lat,Lon (METOP-C) SZA (METOP-C ) Distance(km) Time Diff (sec)
1 11/04/2023 08:27:33 80.81, 85.53 97.85 11/04/2023 08:28:29 80.81, 85.65 97.88 2.19 56
2 11/04/2023 09:18:27 -80.82,-106.97 82.12 11/04/2023 09:19:11 -80.81,-107.01 82.11 1.00 44
3 11/04/2023 10:09:30 80.83, 60.65 97.94 11/04/2023 10:09:50 80.82, 60.55 97.93 1.93 20
4 11/04/2023 11:00:25 -80.82,-132.21 82.07 11/04/2023 11:00:32 -80.82,-132.12 82.06 1.70 7
5 11/04/2023 11:51:28 80.83, 35.42 97.99 11/04/2023 11:51:11 80.83, 35.45 97.99 0.58 17
6 11/04/2023 12:42:22 -80.84,-157.09 81.98 11/04/2023 12:41:53 -80.84,-157.22 82.01 2.35 29
7 11/04/2023 13:33:26 80.84, 10.18 98.04 11/04/2023 13:32:32 80.85, 10.34 98.04 3.09 54
8 11/04/2023 14:24:20 -80.85, 177.67 81.93 11/04/2023 14:23:14 -80.85, 177.68 81.95 0.32 66
9 11/15/2023 23:11:52 80.79,-135.69 101.05 11/15/2023 23:12:58 80.80,-135.58 101.10 2.12 66
10 11/16/2023 00:02:45 -80.80, 31.68 78.93 11/16/2023 00:03:39 -80.80, 31.80 78.89 2.27 54
11 11/16/2023 00:53:49 80.80,-160.94 101.10 11/16/2023 00:54:19 80.79,-161.04 101.10 1.97 30
12 11/16/2023 01:44:43 -80.80, 6.43 78.89 11/16/2023 01:45:01 -80.80, 6.34 78.89 1.81 18
13 11/16/2023 02:35:47 80.81, 173.81 101.15 11/16/2023 02:35:40 80.81, 173.84 101.14 0.68 7
14 11/16/2023 03:26:41 -80.81, -18.82 78.84 11/16/2023 03:26:22 -80.81, -18.78 78.84 0.82 19
15 11/16/2023 04:17:45 80.82, 148.55 101.19 11/16/2023 04:17:01 80.82, 148.73 101.19 3.19 44



Historial Predications of SNOs between NOAA-19 and METOP-C
